Showing default

KUIPER-00451, 68945

Orbit data source: Space-Track

KUIPER-00451, 68945 is a payload satellite owned by Kuiper Systems (US) in LEO that was launched on Thu, 30 Apr 2026 UTC via an ARIANE 64 launch vehicle from the French Guiana (FRGUI). Payload-class satellites include a variety of spacecraft equipped with specific instruments for various scientific and technological missions. These include communications satellites like Starlink; space stations such as the ISS; scientific satellites like the Hubble; Earth observation satellites from companies like Planet Labs, Umbra, and HawkEye 360; GPS; miniature CubeSats for education and research; and military/defense satellites.

Loading next visibility...
Identifier
68945, 2026-098AC
Orbit
LEO
Country
Flag of USUS
Related business
Manufacturer
Kuiper Systems
Mission
Operational spacecraft
Bus & Motor
KUIPER, Unknown motor
Mass
~490 kg wet, ~490 kg dry
Launch date (UTC)
2026-04-30 (1 month ago)
Launch vehicle
ARIANE 64
Launch site
French Guiana (FRGUI)
Object type
Payload
Rocket body
Debris
Shape & HBR
Unknown
Radar Cross Section
Large (>1 m²)

Expand to show TLE details & history
Last TLE update: 4 days ago

TLE from 4 days ago
0 KUIPER-00451
1 68945U 26098AC  26154.17447080  .00019587  00000-0  71111-3 0  9990
2 68945  51.8756 136.0778 0013807  98.1410 262.1140 15.28229692  5186
Epoch: 2026-06-03T04:11Z
TLE epoch observation values (Epoch: 2026-06-03T04:11:14.277Z)
Latitude
0.00003°
Longitude
-178.36854°
Altitude
483.177 km
Speed
7.624 km/s
True Right ascension
09h 04m 18s
True Declination
0° 00' 00"
Sunlit
Object was in daylight at epoch
Visualization orbit readout
Latitude
Unknown
Longitude
Unknown
Altitude
Unknown
Speed
Unknown
Apparent Right ascension
Unknown
Apparent Declination
Unknown
Sunlit
N/A
Visualization observer readout
Local Sidereal Time
03:06:14
Azimuth
Unknown
Elevation
Unknown
Doppler factor
Unknown
Orbital elements
Apogee altitude
491.04 km
Perigee altitude
472.098 km
Semi-major axis
6,859.706 km
Eccentricity
0.00138
Inclination
51.8756°
RAAN
136.0778°
Arg. of periapsis
98.141°
True anomaly
261.95732°
Mean anomaly
262.114°
Eccentric anomaly
262.03565°
Mean motion
3.82019 °/min
Orbital period
94.24 mins
BSTAR
0.00071111
Loading maneuver chart data...
Computing Atmospheric mass density...
Loading historical data...
Loading historical data...
Loading historical data...
Loading historical data...
Loading historical data...
Loading historical data...
Loading historical data...

Documentation

Showing up to 5 results
|